User: anonymous   Login
Location: Caltech
(34.1382°N, 118.1253°W)
Time: 08:05:28
(UTC-07:00)
Language:

Cosmos 1484 Rocket - Orbit

View from above orbital plane
View from above orbital plane
View from above satellite
View from above satellite

Ground track
Ground track

The orbit data is extracted from the following two-line orbital elements,

1 14208U 83075B   17086.94390074 +.00000533 +00000-0 +35708-4 0  9994
2 14208 097.3438 100.8383 0040846 053.0395 307.4563 15.10307487834943
Epoch (UTC): 27 March 2017 22:39:13
Eccentricity: 0.0040846
inclination: 97.3438°
perigee height: 507 km
apogee height: 563 km
right ascension of ascending node: 100.8383°
argument of perigee: 53.0395°
revolutions per day: 15.10307487
mean anomaly at epoch: 307.4563°
orbit number at epoch: 83494

The dashed part of the orbit path shows where the satellite is in the earth's shadow,  

DLR